This is the latest recevied weather packets stored in our database for station/object W4BOD. If no packets are shown the sender has not sent any weather packets the latest 10 day(s).
| Time | Temp. | Humidity | Pressure | Rain* | Wind** | Luminosity | Snow |
|---|---|---|---|---|---|---|---|
| 1777914015 | 25° C | 55% | 1012.7 hPa | 0 mm | - | 902 W/m² | - |
| 1777913710 | 25° C | 54% | 1012.8 hPa | 0 mm | - | 870 W/m² | - |
| 1777913407 | 25° C | 55% | 1012.8 hPa | 0 mm | - | 874 W/m² | - |
| 1777913103 | 25° C | 57% | 1013.1 hPa | 0 mm | - | 779 W/m² | - |
| 1777912800 | 24.44° C | 54% | 1013.2 hPa | 0 mm | - | 875 W/m² | - |
| 1777912495 | 24.44° C | 54% | 1013.3 hPa | 0 mm | - | 837 W/m² | - |
| 1777912192 | 24.44° C | 53% | 1013.3 hPa | 0 mm | - | 813 W/m² | - |
| 1777911889 | 24.44° C | 57% | 1013.3 hPa | 0 mm | - | 845 W/m² | - |
| 1777911585 | 24.44° C | 53% | 1013.4 hPa | 0 mm | - | 735 W/m² | - |
| 1777911281 | 23.89° C | 55% | 1013.4 hPa | 0 mm | - | 879 W/m² | - |
| 1777910978 | 23.89° C | 55% | 1013.6 hPa | 0 mm | - | 785 W/m² | - |
| 1777910677 | 23.89° C | 56% | 1013.6 hPa | 0 mm | - | 903 W/m² | - |
| 1777910372 | 23.89° C | 55% | 1013.7 hPa | 0 mm | - | 872 W/m² | - |
| 1777910069 | 23.89° C | 56% | 1013.7 hPa | 0 mm | - | 788 W/m² | - |
| 1777909767 | 23.33° C | 56% | 1013.9 hPa | 0 mm | - | 854 W/m² | - |
| 1777909463 | 23.33° C | 58% | 1013.8 hPa | 0 mm | - | 830 W/m² | - |
| 1777909161 | 23.33° C | 58% | 1013.5 hPa | 0 mm | - | 824 W/m² | - |
| 1777908859 | 22.78° C | 60% | 1013.8 hPa | 0 mm | - | 817 W/m² | - |
| 1777908556 | 22.78° C | 56% | 1013.8 hPa | 0 mm | - | 782 W/m² | - |
| 1777908253 | 22.22° C | 59% | 1013.9 hPa | 0 mm | - | 795 W/m² | - |
| 1777907949 | 22.22° C | 60% | 1013.8 hPa | 0 mm | - | 774 W/m² | - |
| 1777907644 | 21.67° C | 60% | 1013.9 hPa | 0 mm | - | 765 W/m² | - |
| 1777907340 | 21.67° C | 60% | 1014 hPa | 0 mm | - | 748 W/m² | - |
| 1777907037 | 21.11° C | 60% | 1013.9 hPa | 0 mm | - | 745 W/m² | - |
| 1777906735 | 21.11° C | 61% | 1014.1 hPa | 0 mm | - | 706 W/m² | - |
* Rain latest hour (hover to see other rain measurements)
** Current wind speed in m/s (hover to see current wind gust speed)